| time (UTC) | temp F | wind direction | speed MPH | gust MPH | rain 1hr in | rain 24hr in | rain mn in | humidity % | barometer mb |
| 20260508193526 | 70 | 302 | 4.0 | 10.0 | 0.00 | 0.00 | 0.00 | 20 | 1003.2 |
| 20260508193041 | 69 | 336 | 6.0 | 11.0 | 0.00 | 0.00 | 0.00 | 22 | 1003.3 |
| 20260508192526 | 69 | 287 | 4.0 | 11.0 | 0.00 | 0.00 | 0.00 | 22 | 1003.3 |
| 20260508192026 | 69 | 288 | 3.0 | 12.0 | 0.00 | 0.00 | 0.00 | 21 | 1003.4 |
| 20260508191539 | 68 | 352 | 3.0 | 12.0 | 0.00 | 0.00 | 0.00 | 20 | 1003.4 |
| 20260508191026 | 68 | 248 | 5.0 | 11.0 | 0.00 | 0.00 | 0.00 | 21 | 1003.6 |
| 20260508190527 | 68 | 255 | 6.0 | 12.0 | 0.00 | 0.00 | 0.00 | 21 | 1003.5 |
| 20260508190038 | 68 | 316 | 6.0 | 12.0 | 0.00 | 0.00 | 0.00 | 21 | 1003.6 |
| 20260508185527 | 69 | 289 | 3.0 | 12.0 | 0.00 | 0.00 | 0.00 | 21 | 1003.7 |
| 20260508185027 | 68 | 286 | 6.0 | 12.0 | 0.00 | 0.00 | 0.00 | 21 | 1003.7 |
| 20260508184541 | 68 | 322 | 4.0 | 12.0 | 0.00 | 0.00 | 0.00 | 21 | 1003.8 |
| 20260508184026 | 67 | 40 | 5.0 | 12.0 | 0.00 | 0.00 | 0.00 | 22 | 1003.9 |
| 20260508183529 | 67 | 325 | 5.0 | 12.0 | 0.00 | 0.00 | 0.00 | 22 | 1004.0 |
| 20260508183041 | 67 | 287 | 5.0 | 12.0 | 0.00 | 0.00 | 0.00 | 21 | 1004.0 |
| 20260508182527 | 68 | 291 | 4.0 | 9.0 | 0.00 | 0.00 | 0.00 | 22 | 1004.0 |
| 20260508182026 | 68 | 298 | 4.0 | 9.0 | 0.00 | 0.00 | 0.00 | 21 | 1004.1 |
| 20260508181604 | 67 | 334 | 3.0 | 12.0 | 0.00 | 0.00 | 0.00 | 22 | 1004.2 |
| 20260508181029 | 67 | 286 | 3.0 | 12.0 | 0.00 | 0.00 | 0.00 | 23 | 1004.3 |
| 20260508180526 | 66 | 87 | 3.0 | 10.0 | 0.00 | 0.00 | 0.00 | 23 | 1004.3 |
| 20260508180045 | 66 | 182 | 3.0 | 10.0 | 0.00 | 0.00 | 0.00 | 25 | 1004.4 |
| 20260508175528 | 65 | 54 | 2.0 | 9.0 | 0.00 | 0.00 | 0.00 | 23 | 1004.5 |
| 20260508175029 | 65 | 294 | 3.0 | 17.0 | 0.00 | 0.00 | 0.00 | 23 | 1004.6 |
| 20260508174545 | 64 | 325 | 5.0 | 17.0 | 0.00 | 0.00 | 0.00 | 24 | 1004.6 |
| 20260508174027 | 65 | 203 | 5.0 | 17.0 | 0.00 | 0.00 | 0.00 | 23 | 1004.7 |
| 20260508173527 | 65 | 323 | 3.0 | 15.0 | 0.00 | 0.00 | 0.00 | 23 | 1004.8 |
| 20260508173045 | 65 | 319 | 7.0 | 14.0 | 0.00 | 0.00 | 0.00 | 23 | 1005.0 |
| 20260508172528 | 66 | 294 | 3.0 | 12.0 | 0.00 | 0.00 | 0.00 | 23 | 1005.0 |
| 20260508172027 | 66 | 275 | 4.0 | 13.0 | 0.00 | 0.00 | 0.00 | 23 | 1005.1 |
| 20260508171543 | 66 | 355 | 5.0 | 16.0 | 0.00 | 0.00 | 0.00 | 23 | 1005.1 |
| 20260508171027 | 65 | 300 | 5.0 | 16.0 | 0.00 | 0.00 | 0.00 | 23 | 1005.2 |
| 20260508170526 | 65 | 198 | 7.0 | 12.0 | 0.00 | 0.00 | 0.00 | 24 | 1005.3 |
| 20260508170041 | 64 | 303 | 4.0 | 15.0 | 0.00 | 0.00 | 0.00 | 24 | 1005.3 |
| 20260508165530 | 65 | 325 | 6.0 | 15.0 | 0.00 | 0.00 | 0.00 | 24 | 1005.4 |
| 20260508165028 | 65 | 303 | 3.0 | 11.0 | 0.00 | 0.00 | 0.00 | 24 | 1005.4 |
| 20260508164542 | 64 | 190 | 2.0 | 9.0 | 0.00 | 0.00 | 0.00 | 25 | 1005.5 |
| 20260508164028 | 64 | 14 | 4.0 | 9.0 | 0.00 | 0.00 | 0.00 | 25 | 1005.5 |
| 20260508163528 | 64 | 57 | 3.0 | 10.0 | 0.00 | 0.00 | 0.00 | 25 | 1005.6 |
| 20260508163038 | 64 | 311 | 4.0 | 10.0 | 0.00 | 0.00 | 0.00 | 24 | 1005.5 |
| 20260508162528 | 63 | 333 | 4.0 | 10.0 | 0.00 | 0.00 | 0.00 | 26 | 1005.6 |
| 20260508162029 | 62 | 9 | 3.0 | 11.0 | 0.00 | 0.00 | 0.00 | 27 | 1005.6 |
| 20260508161542 | 62 | 298 | 4.0 | 11.0 | 0.00 | 0.00 | 0.00 | 28 | 1005.6 |
| 20260508161029 | 62 | 5 | 2.0 | 11.0 | 0.00 | 0.00 | 0.00 | 27 | 1005.7 |
| 20260508160528 | 61 | 298 | 7.0 | 11.0 | 0.00 | 0.00 | 0.00 | 28 | 1005.7 |
| 20260508160042 | 62 | 352 | 2.0 | 10.0 | 0.00 | 0.00 | 0.00 | 30 | 1005.8 |
| 20260508155533 | 61 | 333 | 3.0 | 10.0 | 0.00 | 0.00 | 0.00 | 29 | 1005.9 |
| 20260508155028 | 60 | 22 | 4.0 | 9.0 | 0.00 | 0.00 | 0.00 | 32 | 1005.9 |
| 20260508154541 | 59 | 290 | 4.0 | 10.0 | 0.00 | 0.00 | 0.00 | 33 | 1005.8 |
| 20260508154028 | 59 | 292 | 4.0 | 10.0 | 0.00 | 0.00 | 0.00 | 33 | 1005.9 |
| 20260508153528 | 59 | 269 | 5.0 | 9.0 | 0.00 | 0.00 | 0.00 | 32 | 1006.1 |
| 20260508153045 | 60 | 289 | 1.0 | 13.0 | 0.00 | 0.00 | 0.00 | 32 | 1006.1 |
| 20260508152529 | 59 | 19 | 5.0 | 13.0 | 0.00 | 0.00 | 0.00 | 33 | 1006.1 |
| 20260508152028 | 59 | 329 | 3.0 | 7.0 | 0.00 | 0.00 | 0.00 | 35 | 1006.2 |
| 20260508151536 | 58 | 190 | 1.0 | 6.0 | 0.00 | 0.00 | 0.00 | 36 | 1006.1 |
| 20260508151028 | 57 | 298 | 3.0 | 6.0 | 0.00 | 0.00 | 0.00 | 37 | 1006.2 |
| 20260508150527 | 57 | 284 | 2.0 | 6.0 | 0.00 | 0.00 | 0.00 | 39 | 1006.2 |
| 20260508150042 | 56 | 279 | 2.0 | 7.0 | 0.00 | 0.00 | 0.00 | 39 | 1006.4 |
| 20260508145529 | 55 | 295 | 1.0 | 8.0 | 0.00 | 0.00 | 0.00 | 41 | 1006.4 |
| 20260508145028 | 55 | 273 | 3.0 | 9.0 | 0.00 | 0.00 | 0.00 | 40 | 1006.5 |
| 20260508144540 | 54 | 344 | 4.0 | 9.0 | 0.00 | 0.00 | 0.00 | 41 | 1006.4 |
| 20260508144029 | 55 | 271 | 2.0 | 9.0 | 0.00 | 0.00 | 0.00 | 42 | 1006.5 |
| 20260508143530 | 54 | 285 | 4.0 | 9.0 | 0.00 | 0.00 | 0.00 | 41 | 1006.4 |
| 20260508143045 | 54 | 271 | 3.0 | 9.0 | 0.00 | 0.00 | 0.00 | 40 | 1006.6 |
| 20260508142528 | 54 | 287 | 4.0 | 9.0 | 0.00 | 0.00 | 0.00 | 40 | 1006.5 |
| 20260508142028 | 54 | 278 | 4.0 | 8.0 | 0.00 | 0.00 | 0.00 | 38 | 1006.4 |
| 20260508141540 | 54 | 0 | 2.0 | 7.0 | 0.00 | 0.00 | 0.00 | 40 | 1006.4 |
| 20260508141028 | 53 | 273 | 1.0 | 4.0 | 0.00 | 0.00 | 0.00 | 41 | 1006.2 |
| 20260508140530 | 52 | 205 | 1.0 | 5.0 | 0.00 | 0.00 | 0.00 | 41 | 1006.2 |
| 20260508140038 | 52 | 289 | 2.0 | 8.0 | 0.00 | 0.00 | 0.00 | 41 | 1006.2 |
| 20260508135530 | 51 | 0 | 2.0 | 8.0 | 0.00 | 0.00 | 0.00 | 43 | 1006.3 |
| 20260508135029 | 51 | 237 | 2.0 | 6.0 | 0.00 | 0.00 | 0.00 | 44 | 1006.3 |
| 20260508134542 | 50 | 193 | 3.0 | 5.0 | 0.00 | 0.00 | 0.00 | 44 | 1006.4 |
| 20260508134028 | 51 | 229 | 1.0 | 4.0 | 0.00 | 0.00 | 0.00 | 44 | 1006.4 |
| 20260508133527 | 50 | 177 | 1.0 | 4.0 | 0.00 | 0.00 | 0.00 | 45 | 1006.3 |
| 20260508133055 | 50 | 181 | 1.0 | 5.0 | 0.00 | 0.00 | 0.00 | 46 | 1006.6 |
| 20260508132528 | 50 | 0 | 1.0 | 7.0 | 0.00 | 0.00 | 0.00 | 45 | 1006.5 |
| 20260508132031 | 49 | 300 | 1.0 | 7.0 | 0.00 | 0.00 | 0.00 | 47 | 1006.6 |
| 20260508131544 | 48 | 168 | 3.0 | 8.0 | 0.00 | 0.00 | 0.00 | 48 | 1006.6 |
| 20260508131027 | 47 | 250 | 2.0 | 9.0 | 0.00 | 0.00 | 0.00 | 49 | 1006.7 |
| 20260508130528 | 47 | 252 | 3.0 | 9.0 | 0.00 | 0.00 | 0.00 | 49 | 1006.7 |
| 20260508130037 | 46 | 171 | 3.0 | 10.0 | 0.00 | 0.00 | 0.00 | 49 | 1006.7 |
| 20260508125526 | 46 | 155 | 4.0 | 10.0 | 0.00 | 0.00 | 0.00 | 48 | 1006.7 |
| 20260508125028 | 46 | 272 | 4.0 | 10.0 | 0.00 | 0.00 | 0.00 | 49 | 1006.6 |
| 20260508124542 | 46 | 172 | 2.0 | 7.0 | 0.00 | 0.00 | 0.00 | 50 | 1006.8 |
| 20260508124028 | 45 | 234 | 2.0 | 10.0 | 0.00 | 0.00 | 0.00 | 50 | 1006.8 |
| 20260508123529 | 45 | 294 | 3.0 | 10.0 | 0.00 | 0.00 | 0.00 | 50 | 1007.0 |
| 20260508123055 | 45 | 235 | 4.0 | 8.0 | 0.00 | 0.00 | 0.00 | 50 | 1007.1 |
| 20260508122526 | 45 | 227 | 4.0 | 7.0 | 0.00 | 0.00 | 0.00 | 50 | 1007.0 |
| 20260508122028 | 45 | 257 | 3.0 | 7.0 | 0.00 | 0.00 | 0.00 | 52 | 1006.9 |
| 20260508121550 | 44 | 280 | 1.0 | 4.0 | 0.00 | 0.00 | 0.00 | 53 | 1007.0 |
| 20260508121028 | 44 | 0 | 0.0 | 3.0 | 0.00 | 0.00 | 0.00 | 54 | 1006.9 |
| 20260508120528 | 44 | 0 | 0.0 | 3.0 | 0.00 | 0.00 | 0.00 | 53 | 1006.9 |
| 20260508120040 | 44 | 240 | 1.0 | 4.0 | 0.00 | 0.00 | 0.00 | 52 | 1006.8 |
| 20260508115529 | 43 | 0 | 1.0 | 4.0 | 0.00 | 0.00 | 0.00 | 53 | 1006.8 |
| 20260508115026 | 43 | 0 | 0.0 | 3.0 | 0.00 | 0.00 | 0.00 | 53 | 1006.7 |
| 20260508114543 | 43 | 0 | 0.0 | 3.0 | 0.00 | 0.00 | 0.00 | 53 | 1006.8 |
| 20260508114027 | 43 | 0 | 1.0 | 3.0 | 0.00 | 0.00 | 0.00 | 52 | 1006.8 |
| 20260508113526 | 43 | 275 | 1.0 | 2.0 | 0.00 | 0.00 | 0.00 | 53 | 1006.7 |
| 20260508113047 | 42 | 248 | 0.0 | 2.0 | 0.00 | 0.00 | 0.00 | 56 | 1006.7 |
| 20260508112526 | 42 | 0 | 0.0 | 1.0 | 0.00 | 0.00 | 0.00 | 58 | 1006.5 |
| 20260508112028 | 42 | 0 | 0.0 | 1.0 | 0.00 | 0.00 | 0.00 | 60 | 1006.5 |
| 20260508111541 | 42 | 0 | 0.0 | 1.0 | 0.00 | 0.00 | 0.00 | 60 | 1006.6 |
| 20260508111028 | 42 | 0 | 0.0 | 1.0 | 0.00 | 0.00 | 0.00 | 61 | 1006.5 |
| 20260508110528 | 41 | 190 | 0.0 | 1.0 | 0.00 | 0.00 | 0.00 | 62 | 1006.6 |
| 20260508110044 | 41 | 0 | 0.0 | 1.0 | 0.00 | 0.00 | 0.00 | 64 | 1006.6 |
| 20260508105529 | 41 | 0 | 0.0 | 1.0 | 0.00 | 0.00 | 0.00 | 65 | 1006.6 |
| 20260508105027 | 41 | 0 | 0.0 | 2.0 | 0.00 | 0.00 | 0.00 | 65 | 1006.6 |
| 20260508104541 | 41 | 0 | 0.0 | 2.0 | 0.00 | 0.00 | 0.00 | 62 | 1006.6 |
| 20260508104027 | 41 | 0 | 0.0 | 2.0 | 0.00 | 0.00 | 0.00 | 62 | 1006.6 |
| 20260508103527 | 41 | 0 | 0.0 | 3.0 | 0.00 | 0.00 | 0.00 | 66 | 1006.6 |
| 20260508103042 | 40 | 182 | 0.0 | 3.0 | 0.00 | 0.00 | 0.00 | 66 | 1006.7 |
| 20260508102528 | 40 | 0 | 1.0 | 3.0 | 0.00 | 0.00 | 0.00 | 68 | 1006.7 |
| 20260508102028 | 39 | 0 | 0.0 | 3.0 | 0.00 | 0.00 | 0.00 | 74 | 1006.8 |
| 20260508101538 | 39 | 179 | 0.0 | 3.0 | 0.00 | 0.00 | 0.00 | 72 | 1006.9 |
| 20260508101029 | 40 | 179 | 1.0 | 2.0 | 0.00 | 0.00 | 0.00 | 70 | 1007.0 |
| 20260508100528 | 40 | 179 | 1.0 | 2.0 | 0.00 | 0.00 | 0.00 | 67 | 1007.1 |
| 20260508100037 | 40 | 0 | 0.0 | 3.0 | 0.00 | 0.00 | 0.00 | 65 | 1007.1 |
| 20260508095529 | 40 | 0 | 0.0 | 3.0 | 0.00 | 0.00 | 0.00 | 67 | 1007.1 |
| 20260508095028 | 39 | 0 | 0.0 | 3.0 | 0.00 | 0.00 | 0.00 | 70 | 1007.1 |
| 20260508094547 | 39 | 0 | 0.0 | 3.0 | 0.00 | 0.00 | 0.00 | 74 | 1007.0 |
| 20260508094028 | 39 | 166 | 0.0 | 3.0 | 0.00 | 0.00 | 0.00 | 73 | 1007.2 |
| 20260508093528 | 40 | 0 | 0.0 | 3.0 | 0.00 | 0.00 | 0.00 | 72 | 1007.2 |
| 20260508093043 | 40 | 165 | 0.0 | 2.0 | 0.00 | 0.00 | 0.00 | 68 | 1007.2 |
| 20260508092528 | 40 | 113 | 0.0 | 2.0 | 0.00 | 0.00 | 0.00 | 67 | 1007.0 |
| 20260508092029 | 40 | 0 | 0.0 | 1.0 | 0.00 | 0.00 | 0.00 | 66 | 1007.2 |
| 20260508091539 | 41 | 0 | 0.0 | 1.0 | 0.00 | 0.00 | 0.00 | 62 | 1007.1 |
| 20260508091028 | 41 | 0 | 0.0 | 1.0 | 0.00 | 0.00 | 0.00 | 61 | 1007.2 |
| 20260508090529 | 41 | 0 | 0.0 | 1.0 | 0.00 | 0.00 | 0.00 | 61 | 1007.2 |
| 20260508090037 | 41 | 0 | 0.0 | 1.0 | 0.00 | 0.00 | 0.00 | 61 | 1007.3 |
| 20260508085530 | 41 | 0 | 0.0 | 1.0 | 0.00 | 0.00 | 0.00 | 62 | 1007.4 |
| 20260508085027 | 41 | 0 | 0.0 | 0.0 | 0.00 | 0.00 | 0.00 | 64 | 1007.3 |
| 20260508084536 | 41 | 0 | 0.0 | 1.0 | 0.00 | 0.00 | 0.00 | 63 | 1007.2 |
| 20260508084027 | 41 | 0 | 0.0 | 1.0 | 0.00 | 0.00 | 0.00 | 63 | 1007.3 |
| 20260508083527 | 41 | 0 | 0.0 | 1.0 | 0.00 | 0.00 | 0.00 | 63 | 1007.3 |
| 20260508083041 | 41 | 0 | 0.0 | 2.0 | 0.00 | 0.00 | 0.00 | 63 | 1007.2 |
| 20260508082529 | 42 | 0 | 0.0 | 2.0 | 0.00 | 0.00 | 0.00 | 63 | 1007.1 |
| 20260508082028 | 42 | 0 | 0.0 | 1.0 | 0.00 | 0.00 | 0.00 | 62 | 1007.2 |
| 20260508081538 | 43 | 0 | 0.0 | 1.0 | 0.00 | 0.00 | 0.00 | 60 | 1007.3 |
| 20260508081029 | 43 | 0 | 0.0 | 2.0 | 0.00 | 0.00 | 0.00 | 57 | 1007.3 |
| 20260508080528 | 43 | 0 | 0.0 | 2.0 | 0.00 | 0.00 | 0.00 | 56 | 1007.2 |
| 20260508080038 | 44 | 190 | 0.0 | 2.0 | 0.00 | 0.00 | 0.00 | 56 | 1007.2 |
| 20260508075528 | 44 | 0 | 0.0 | 2.0 | 0.00 | 0.00 | 0.00 | 56 | 1007.3 |
| 20260508075027 | 44 | 0 | 0.0 | 3.0 | 0.00 | 0.00 | 0.00 | 55 | 1007.2 |
| 20260508074541 | 44 | 0 | 0.0 | 3.0 | 0.00 | 0.00 | 0.00 | 56 | 1007.4 |
| 20260508074029 | 44 | 198 | 1.0 | 4.0 | 0.00 | 0.00 | 0.00 | 60 | 1007.3 |
| 20260508073528 | 44 | 186 | 1.0 | 4.0 | 0.00 | 0.00 | 0.00 | 61 | 1007.3 |
| 20260508073041 | 43 | 209 | 0.0 | 3.0 | 0.00 | 0.00 | 0.00 | 64 | 1007.2 |
| 20260508072527 | 43 | 192 | 1.0 | 3.0 | 0.00 | 0.00 | 0.00 | 67 | 1007.2 |
| 20260508072028 | 43 | 0 | 0.0 | 4.0 | 0.00 | 0.00 | 0.00 | 65 | 1007.1 |
| 20260508071540 | 44 | 180 | 1.0 | 4.0 | 0.00 | 0.00 | 0.00 | 61 | 1007.1 |
| 20260508071028 | 43 | 182 | 0.0 | 3.0 | 0.00 | 0.00 | 0.00 | 62 | 1007.1 |
| 20260508070528 | 43 | 178 | 0.0 | 3.0 | 0.00 | 0.00 | 0.00 | 64 | 1007.1 |
| 20260508070042 | 43 | 181 | 0.0 | 3.0 | 0.00 | 0.00 | 0.00 | 66 | 1007.2 |
| 20260508065533 | 43 | 0 | 0.0 | 3.0 | 0.00 | 0.00 | 0.00 | 68 | 1007.2 |
| 20260508065027 | 43 | 177 | 0.0 | 4.0 | 0.00 | 0.00 | 0.00 | 68 | 1007.3 |
| 20260508064543 | 43 | 175 | 0.0 | 4.0 | 0.00 | 0.00 | 0.00 | 67 | 1007.3 |
| 20260508064028 | 43 | 158 | 1.0 | 4.0 | 0.00 | 0.00 | 0.00 | 65 | 1007.5 |
| 20260508063528 | 43 | 0 | 0.0 | 2.0 | 0.00 | 0.00 | 0.00 | 61 | 1007.4 |
| 20260508063042 | 44 | 0 | 0.0 | 2.0 | 0.00 | 0.00 | 0.00 | 61 | 1007.4 |
| 20260508062527 | 44 | 0 | 0.0 | 2.0 | 0.00 | 0.00 | 0.00 | 60 | 1007.5 |
| 20260508062027 | 44 | 0 | 1.0 | 3.0 | 0.00 | 0.00 | 0.00 | 61 | 1007.6 |
| 20260508061541 | 44 | 0 | 0.0 | 4.0 | 0.00 | 0.00 | 0.00 | 62 | 1007.7 |
| 20260508061028 | 44 | 166 | 1.0 | 4.0 | 0.00 | 0.00 | 0.00 | 61 | 1007.7 |
| 20260508060528 | 44 | 0 | 0.0 | 4.0 | 0.00 | 0.00 | 0.00 | 60 | 1007.6 |
| 20260508060039 | 44 | 174 | 0.0 | 3.0 | 0.00 | 0.00 | 0.00 | 60 | 1007.7 |
| 20260508055528 | 45 | 168 | 0.0 | 4.0 | 0.00 | 0.00 | 0.00 | 59 | 1007.7 |
| 20260508055028 | 45 | 160 | 1.0 | 4.0 | 0.00 | 0.00 | 0.00 | 58 | 1007.8 |
| 20260508054542 | 45 | 209 | 1.0 | 4.0 | 0.00 | 0.00 | 0.00 | 58 | 1007.8 |
| 20260508054027 | 45 | 165 | 1.0 | 4.0 | 0.00 | 0.00 | 0.00 | 59 | 1008.0 |
| 20260508053528 | 45 | 180 | 1.0 | 4.0 | 0.00 | 0.00 | 0.00 | 61 | 1008.0 |
| 20260508053036 | 44 | 151 | 1.0 | 4.0 | 0.00 | 0.00 | 0.00 | 60 | 1008.1 |
| 20260508052530 | 45 | 179 | 0.0 | 4.0 | 0.00 | 0.00 | 0.00 | 59 | 1008.0 |
| 20260508052029 | 45 | 0 | 1.0 | 4.0 | 0.00 | 0.00 | 0.00 | 58 | 1008.0 |
| 20260508051542 | 45 | 162 | 0.0 | 3.0 | 0.00 | 0.00 | 0.00 | 60 | 1008.1 |
| 20260508051030 | 45 | 0 | 1.0 | 3.0 | 0.00 | 0.00 | 0.00 | 60 | 1008.0 |
| 20260508050529 | 45 | 160 | 0.0 | 3.0 | 0.00 | 0.00 | 0.00 | 59 | 1008.1 |
| 20260508050040 | 45 | 165 | 1.0 | 3.0 | 0.00 | 0.00 | 0.00 | 59 | 1008.1 |
| 20260508045528 | 45 | 0 | 0.0 | 3.0 | 0.00 | 0.00 | 0.00 | 59 | 1008.1 |
| 20260508045028 | 45 | 152 | 0.0 | 4.0 | 0.00 | 0.00 | 0.00 | 61 | 1008.2 |
| 20260508044553 | 45 | 166 | 1.0 | 4.0 | 0.00 | 0.00 | 0.00 | 60 | 1008.2 |
| 20260508044102 | 45 | 163 | 0.0 | 4.0 | 0.00 | 0.00 | 0.00 | 57 | 1008.3 |
| 20260508043528 | 45 | 173 | 1.0 | 4.0 | 0.00 | 0.00 | 0.00 | 56 | 1008.3 |
| 20260508043046 | 46 | 180 | 1.0 | 4.0 | 0.00 | 0.00 | 0.00 | 55 | 1008.4 |
| 20260508042528 | 46 | 0 | 1.0 | 3.0 | 0.00 | 0.00 | 0.00 | 55 | 1008.4 |
| 20260508042027 | 46 | 0 | 1.0 | 5.0 | 0.00 | 0.00 | 0.00 | 55 | 1008.5 |
| 20260508041542 | 46 | 191 | 2.0 | 5.0 | 0.00 | 0.00 | 0.00 | 54 | 1008.4 |
| 20260508041027 | 45 | 190 | 1.0 | 4.0 | 0.00 | 0.00 | 0.00 | 55 | 1008.5 |
| 20260508040528 | 45 | 0 | 0.0 | 2.0 | 0.00 | 0.00 | 0.00 | 58 | 1008.5 |
| 20260508040042 | 44 | 176 | 0.0 | 2.0 | 0.00 | 0.00 | 0.00 | 66 | 1008.5 |
| 20260508035528 | 45 | 0 | 0.0 | 3.0 | 0.00 | 0.00 | 0.00 | 67 | 1008.6 |
| 20260508035028 | 45 | 188 | 0.0 | 3.0 | 0.00 | 0.00 | 0.00 | 67 | 1008.6 |
| 20260508034552 | 45 | 182 | 1.0 | 4.0 | 0.00 | 0.00 | 0.00 | 65 | 1008.6 |
| 20260508034027 | 46 | 176 | 1.0 | 4.0 | 0.00 | 0.00 | 0.00 | 63 | 1008.6 |
| 20260508033531 | 46 | 173 | 0.0 | 2.0 | 0.00 | 0.00 | 0.00 | 60 | 1008.6 |
| 20260508033044 | 46 | 171 | 0.0 | 3.0 | 0.00 | 0.00 | 0.00 | 59 | 1008.6 |
| 20260508032528 | 46 | 0 | 0.0 | 4.0 | 0.00 | 0.00 | 0.00 | 61 | 1008.7 |
| 20260508032028 | 46 | 166 | 1.0 | 4.0 | 0.00 | 0.00 | 0.00 | 61 | 1008.7 |
| 20260508031542 | 47 | 196 | 1.0 | 3.0 | 0.00 | 0.00 | 0.00 | 61 | 1008.7 |
| 20260508031027 | 47 | 169 | 1.0 | 4.0 | 0.00 | 0.00 | 0.00 | 61 | 1008.7 |
| 20260508030527 | 47 | 173 | 1.0 | 4.0 | 0.00 | 0.00 | 0.00 | 62 | 1008.6 |
| 20260508030045 | 48 | 0 | 1.0 | 4.0 | 0.00 | 0.00 | 0.00 | 61 | 1008.7 |
| 20260508025527 | 48 | 194 | 1.0 | 4.0 | 0.00 | 0.00 | 0.00 | 61 | 1008.7 |
| 20260508025027 | 49 | 184 | 1.0 | 4.0 | 0.00 | 0.00 | 0.00 | 58 | 1008.7 |
| 20260508024544 | 49 | 188 | 2.0 | 3.0 | 0.00 | 0.00 | 0.00 | 56 | 1008.6 |
| 20260508024027 | 49 | 182 | 1.0 | 3.0 | 0.00 | 0.00 | 0.00 | 51 | 1008.7 |
| 20260508023528 | 50 | 185 | 1.0 | 3.0 | 0.00 | 0.00 | 0.00 | 45 | 1008.7 |
| 20260508023037 | 50 | 89 | 0.0 | 2.0 | 0.00 | 0.00 | 0.00 | 40 | 1008.6 |
| 20260508022528 | 51 | 0 | 0.0 | 1.0 | 0.00 | 0.00 | 0.00 | 38 | 1008.6 |
| 20260508022028 | 51 | 0 | 0.0 | 1.0 | 0.00 | 0.00 | 0.00 | 38 | 1008.5 |
| 20260508021542 | 51 | 0 | 0.0 | 1.0 | 0.00 | 0.00 | 0.00 | 37 | 1008.6 |
| 20260508021027 | 52 | 0 | 0.0 | 3.0 | 0.00 | 0.00 | 0.00 | 37 | 1008.5 |
| 20260508020527 | 53 | 0 | 0.0 | 4.0 | 0.00 | 0.00 | 0.00 | 35 | 1008.5 |
| 20260508020046 | 53 | 42 | 1.0 | 4.0 | 0.00 | 0.00 | 0.00 | 34 | 1008.3 |
| 20260508015528 | 54 | 284 | 2.0 | 4.0 | 0.00 | 0.00 | 0.00 | 33 | 1008.3 |
| 20260508015027 | 54 | 0 | 1.0 | 3.0 | 0.00 | 0.00 | 0.00 | 33 | 1008.2 |
| 20260508014542 | 54 | 274 | 1.0 | 4.0 | 0.00 | 0.00 | 0.00 | 32 | 1008.2 |
| 20260508014028 | 55 | 272 | 0.0 | 6.0 | 0.00 | 0.00 | 0.00 | 32 | 1008.2 |
| 20260508013617 | 55 | 278 | 1.0 | 7.0 | 0.00 | 0.00 | 0.00 | 32 | 1008.1 |
| 20260508013042 | 55 | 5 | 2.0 | 7.0 | 0.00 | 0.00 | 0.00 | 31 | 1008.2 |
| 20260508012528 | 55 | 275 | 2.0 | 7.0 | 0.00 | 0.00 | 0.00 | 31 | 1008.2 |
| 20260508012028 | 56 | 294 | 2.0 | 5.0 | 0.00 | 0.00 | 0.00 | 30 | 1008.2 |
| 20260508011545 | 56 | 287 | 1.0 | 5.0 | 0.00 | 0.00 | 0.00 | 30 | 1008.2 |
| 20260508011028 | 56 | 270 | 2.0 | 6.0 | 0.00 | 0.00 | 0.00 | 30 | 1008.1 |
| 20260508010528 | 56 | 276 | 3.0 | 9.0 | 0.00 | 0.00 | 0.00 | 30 | 1008.1 |
| 20260508010043 | 57 | 269 | 3.0 | 9.0 | 0.00 | 0.00 | 0.00 | 29 | 1008.1 |
| 20260508005532 | 57 | 295 | 4.0 | 9.0 | 0.00 | 0.00 | 0.00 | 29 | 1008.2 |
| 20260508005028 | 57 | 286 | 3.0 | 9.0 | 0.00 | 0.00 | 0.00 | 29 | 1008.1 |
| 20260508004547 | 57 | 308 | 4.0 | 9.0 | 0.00 | 0.00 | 0.00 | 28 | 1008.2 |
| 20260508004027 | 58 | 268 | 1.0 | 10.0 | 0.00 | 0.00 | 0.00 | 28 | 1008.1 |
| 20260508003527 | 57 | 267 | 3.0 | 13.0 | 0.00 | 0.00 | 0.00 | 28 | 1008.2 |
| 20260508003041 | 58 | 296 | 7.0 | 13.0 | 0.00 | 0.00 | 0.00 | 27 | 1008.2 |
| 20260508002528 | 58 | 306 | 4.0 | 15.0 | 0.00 | 0.00 | 0.00 | 28 | 1008.2 |
| 20260508002027 | 58 | 61 | 6.0 | 15.0 | 0.00 | 0.00 | 0.00 | 27 | 1008.1 |
| 20260508001539 | 58 | 288 | 7.0 | 15.0 | 0.00 | 0.00 | 0.00 | 27 | 1008.1 |
| 20260508001028 | 58 | 307 | 4.0 | 13.0 | 0.00 | 0.00 | 0.00 | 27 | 1008.1 |
| 20260508000528 | 58 | 267 | 6.0 | 13.0 | 0.00 | 0.00 | 0.00 | 27 | 1008.1 |
| 20260508000038 | 58 | 303 | 3.0 | 11.0 | 0.00 | 0.00 | 0.00 | 27 | 1008.2 |
| 20260507235527 | 58 | 284 | 4.0 | 14.0 | 0.00 | 0.00 | 0.00 | 27 | 1008.2 |
| 20260507235028 | 58 | 294 | 8.0 | 14.0 | 0.00 | 0.00 | 0.00 | 27 | 1008.3 |
| 20260507234549 | 58 | 284 | 5.0 | 14.0 | 0.00 | 0.00 | 0.00 | 27 | 1008.2 |
| 20260507234027 | 58 | 212 | 7.0 | 13.0 | 0.00 | 0.00 | 0.00 | 27 | 1008.4 |
| 20260507233529 | 59 | 307 | 6.0 | 12.0 | 0.00 | 0.00 | 0.00 | 27 | 1008.3 |
| 20260507233043 | 59 | 325 | 4.0 | 11.0 | 0.00 | 0.00 | 0.00 | 27 | 1008.3 |
| 20260507232529 | 59 | 302 | 4.0 | 11.0 | 0.00 | 0.00 | 0.00 | 27 | 1008.3 |
| 20260507232027 | 59 | 304 | 3.0 | 15.0 | 0.00 | 0.00 | 0.00 | 27 | 1008.3 |
| 20260507231548 | 59 | 300 | 5.0 | 15.0 | 0.00 | 0.00 | 0.00 | 27 | 1008.4 |
| 20260507231030 | 59 | 275 | 3.0 | 11.0 | 0.00 | 0.00 | 0.00 | 28 | 1008.4 |
| 20260507230528 | 58 | 286 | 4.0 | 12.0 | 0.00 | 0.00 | 0.00 | 27 | 1008.4 |
| 20260507230043 | 58 | 318 | 5.0 | 12.0 | 0.00 | 0.00 | 0.00 | 28 | 1008.5 |
| 20260507225528 | 58 | 279 | 5.0 | 12.0 | 0.00 | 0.00 | 0.00 | 28 | 1008.5 |
| 20260507225025 | 57 | 328 | 4.0 | 13.0 | 0.00 | 0.00 | 0.00 | 28 | 1008.6 |
| 20260507224538 | 58 | 294 | 8.0 | 17.0 | 0.00 | 0.00 | 0.00 | 27 | 1008.5 |
| 20260507224028 | 58 | 293 | 6.0 | 17.0 | 0.00 | 0.00 | 0.00 | 27 | 1008.5 |
| 20260507223528 | 59 | 251 | 5.0 | 16.0 | 0.00 | 0.00 | 0.00 | 28 | 1008.6 |
| 20260507223037 | 59 | 290 | 5.0 | 16.0 | 0.00 | 0.00 | 0.00 | 27 | 1008.5 |
| 20260507222527 | 58 | 315 | 6.0 | 14.0 | 0.00 | 0.00 | 0.00 | 28 | 1008.6 |
| 20260507222027 | 57 | 307 | 6.0 | 16.0 | 0.00 | 0.00 | 0.00 | 28 | 1008.7 |
| 20260507221545 | 57 | 315 | 7.0 | 18.0 | 0.00 | 0.00 | 0.00 | 28 | 1008.7 |
| 20260507221029 | 57 | 284 | 10.0 | 20.0 | 0.00 | 0.00 | 0.00 | 28 | 1008.8 |
| 20260507220527 | 58 | 296 | 8.0 | 20.0 | 0.00 | 0.00 | 0.00 | 28 | 1008.8 |
| 20260507220041 | 58 | 258 | 8.0 | 15.0 | 0.00 | 0.00 | 0.00 | 27 | 1008.7 |
| 20260507215528 | 58 | 301 | 7.0 | 13.0 | 0.00 | 0.00 | 0.00 | 27 | 1008.8 |
| 20260507215027 | 59 | 273 | 3.0 | 11.0 | 0.00 | 0.00 | 0.00 | 27 | 1009.0 |
| 20260507214541 | 58 | 279 | 2.0 | 15.0 | 0.00 | 0.00 | 0.00 | 28 | 1008.9 |
| 20260507214027 | 57 | 337 | 5.0 | 15.0 | 0.00 | 0.00 | 0.00 | 28 | 1008.9 |
| 20260507213528 | 59 | 259 | 6.0 | 15.0 | 0.00 | 0.00 | 0.00 | 27 | 1009.1 |
| 20260507213040 | 58 | 191 | 4.0 | 14.0 | 0.00 | 0.00 | 0.00 | 28 | 1009.0 |
| 20260507212527 | 58 | 316 | 7.0 | 14.0 | 0.00 | 0.00 | 0.00 | 27 | 1009.2 |
| 20260507212029 | 58 | 252 | 5.0 | 16.0 | 0.00 | 0.00 | 0.00 | 28 | 1009.1 |
| 20260507211536 | 58 | 279 | 5.0 | 16.0 | 0.00 | 0.00 | 0.00 | 29 | 1009.1 |
| 20260507211027 | 57 | 286 | 7.0 | 14.0 | 0.00 | 0.00 | 0.00 | 28 | 1009.2 |
| 20260507210529 | 58 | 275 | 7.0 | 14.0 | 0.00 | 0.00 | 0.00 | 27 | 1009.2 |
| 20260507210043 | 58 | 18 | 5.0 | 13.0 | 0.00 | 0.00 | 0.00 | 27 | 1009.3 |
| 20260507205528 | 58 | 316 | 6.0 | 13.0 | 0.00 | 0.00 | 0.00 | 28 | 1009.3 |
| 20260507205027 | 59 | 261 | 4.0 | 12.0 | 0.00 | 0.00 | 0.00 | 26 | 1009.3 |
| 20260507204540 | 60 | 285 | 4.0 | 11.0 | 0.00 | 0.00 | 0.00 | 26 | 1009.4 |
| 20260507204027 | 59 | 283 | 3.0 | 11.0 | 0.00 | 0.00 | 0.00 | 28 | 1009.4 |
| 20260507203527 | 57 | 302 | 5.0 | 13.0 | 0.00 | 0.00 | 0.00 | 28 | 1009.3 |
| 20260507203047 | 57 | 290 | 5.0 | 13.0 | 0.00 | 0.00 | 0.00 | 29 | 1009.5 |
| 20260507202527 | 57 | 308 | 4.0 | 12.0 | 0.00 | 0.00 | 0.00 | 28 | 1009.5 |
| 20260507202027 | 56 | 303 | 3.0 | 12.0 | 0.00 | 0.00 | 0.00 | 29 | 1009.6 |
| 20260507201541 | 56 | 287 | 6.0 | 11.0 | 0.00 | 0.00 | 0.00 | 28 | 1009.8 |
| 20260507201027 | 56 | 293 | 5.0 | 13.0 | 0.00 | 0.00 | 0.00 | 29 | 1009.7 |
| 20260507200527 | 56 | 288 | 7.0 | 14.0 | 0.00 | 0.00 | 0.00 | 28 | 1009.9 |
| 20260507200045 | 56 | 281 | 6.0 | 14.0 | 0.00 | 0.00 | 0.00 | 28 | 1010.0 |
| 20260507195528 | 56 | 12 | 5.0 | 12.0 | 0.00 | 0.00 | 0.00 | 30 | 1009.8 |
| 20260507195028 | 56 | 293 | 6.0 | 12.0 | 0.00 | 0.00 | 0.00 | 28 | 1010.0 |
| 20260507194542 | 57 | 292 | 4.0 | 13.0 | 0.00 | 0.00 | 0.00 | 27 | 1010.1 |
| 20260507194027 | 57 | 290 | 4.0 | 13.0 | 0.00 | 0.00 | 0.00 | 28 | 1010.1 |